[[{"header":{"parameterUnit":"m.s-1","parameterCategory":1,"la1":30.2992,"la2":30.254,"lo1":-89.0895,"lo2":-89.0443,"dy":0.0025,"dx":0.0025,"nx":19,"ny":19,"refTime":"2026-04-21T09:00:00:Z","depth":0,"parameterNumber":2,"parameterNumberName":"U-component_of_WINDS"},"data":[0,0,0,-3.4009,-3.4012,-3.4154,-3.4154,-3.4336,-3.4338,0,0,0,0,0,0,0,0,0,0,0,-3.3968,-3.397,-3.4009,-3.4013,-3.4154,-3.4154,-3.4336,-3.4338,0,0,0,0,0,0,0,0,0,0,0,-3.3968,-3.3969,-3.3971,-3.4013,-3.4154,-3.4155,-3.4335,-3.4228,0,0,0,0,0,0,0,0,0,0,-3.4091,-3.4054,-3.3969,-3.3971,-3.4014,-3.4154,-3.4155,-3.4223,-3.4235,-3.4272,0,-3.4306,0,-3.4325,-3.435,-3.435,0,0,0,-3.4012,-3.4044,-3.4081,-3.3971,-3.4015,-3.4153,-3.409,-3.423,-3.4243,-3.4288,-3.4309,-3.4316,-3.4328,-3.4351,-3.4352,-3.4571,-3.4572,0,0,-3.4004,-3.3994,-3.4072,-3.409,-3.4069,-3.4085,-3.4094,-3.4238,-3.426,-3.431,-3.432,-3.4331,-3.4352,-3.4354,-3.457,-3.4571,0,0,0,-3.3982,-3.3989,-3.4023,-3.4083,-3.4108,-3.4089,-3.41,-3.4253,-3.4265,-3.4322,-3.4333,-3.4353,-3.4356,-3.4568,-3.457,-3.4612,0,0,0,-3.3977,-3.3976,-3.4019,-3.4015,-3.4106,-3.4183,-3.4112,-3.4255,-3.4272,-3.4332,-3.4353,-3.4357,-3.4567,-3.4569,-3.4608,-3.4633,0,0,0,-3.3959,-3.3974,-3.3995,-3.4014,-3.4074,-3.4181,-3.4201,-3.4259,-3.4279,-3.4351,-3.4358,-3.4567,-3.4569,-3.4605,-3.4628,-3.4687,0,0,0,-3.3936,-3.403,-3.3995,-3.4105,-3.4073,-3.4206,-3.42,-3.4299,-3.4366,-3.4354,-3.4567,-3.457,-3.4604,-3.4624,-3.4683,-3.4733,-3.4754,0,0,-3.4049,-3.4044,-3.4109,-3.4082,-3.4218,-3.4185,-3.4328,-3.4398,-3.4414,-3.4517,-3.4523,-3.4609,-3.4627,-3.4686,-3.4874,-3.489,0,0,0,-3.4142,-3.4188,-3.4227,-3.429,-3.4346,-3.4396,-3.4446,-3.4472,-3.456,-3.4465,-3.4648,-3.4659,-3.4693,-3.4718,-3.4731,-3.4761,-3.4581,-3.4581,-3.4581,-3.4288,-3.4303,-3.4412,-3.4444,-3.4505,-3.4555,-3.4606,-3.4649,-3.4647,-3.469,-3.472,-3.4833,-3.4861,-3.4871,-3.4902,-3.4749,-3.475,-3.475,-3.475,-3.4454,-3.4522,-3.4517,-3.462,-3.4635,-3.4722,-3.4774,-3.4769,-3.4852,-3.4811,-3.4843,-3.4796,-3.4889,-3.4916,-3.4753,-3.4753,-3.4752,-3.4752,-3.4752,-3.4551,-3.4586,-3.4616,-3.4708,-3.4777,-3.4807,-3.4886,-3.4897,-3.4909,-3.494,-3.4972,-3.4972,-3.4971,-3.4955,-3.4955,-3.4956,-3.4956,-3.4956,-3.4956,-3.4638,-3.4671,-3.4736,-3.4803,-3.4845,-3.4901,-3.4952,-3.4993,-3.5041,-3.5043,-3.5044,-3.5036,-3.4896,-3.4859,-3.4962,-3.4961,-3.4961,-3.496,-3.496,-3.48,-3.4765,-3.4866,-3.4907,-3.4986,-3.5054,-3.5067,-3.515,-3.5185,-3.5224,-3.521,-3.5105,-3.51,-3.5089,-3.5058,-3.5207,-3.5207,-3.5207,-3.5208,-3.488,-3.4878,-3.4984,-3.5049,-3.5114,-3.5137,-3.525,-3.529,-3.5326,-3.5349,-3.5329,-3.5291,-3.5279,-3.5281,-3.5266,-3.5238,-3.5429,-3.5429,-3.5429,-3.4979,-3.4985,-3.5079,-3.5113,-3.5176,-3.5229,-3.5335,-3.541,-3.5444,-3.5439,-3.5367,-3.5357,-3.5295,-3.5275,-3.5266,-3.5243,-3.5192,0,0]},{"header":{"parameterUnit":"m.s-1","parameterCategory":1,"la1":30.2992,"la2":30.254,"lo1":-89.0895,"lo2":-89.0443,"dy":0.0025,"dx":0.0025,"nx":19,"ny":19,"refTime":"2026-04-21T09:00:00:Z","depth":0,"parameterNumber":3,"parameterNumberName":"V-component_of_WINDS"},"data":[0,0,0,4.3799,4.3801,4.3883,4.3883,4.3994,4.3996,0,0,0,0,0,0,0,0,0,0,0,4.3783,4.3784,4.3799,4.3802,4.3883,4.3883,4.3994,4.3996,0,0,0,0,0,0,0,0,0,0,0,4.3782,4.3783,4.3785,4.3802,4.3883,4.3883,4.3994,4.3929,0,0,0,0,0,0,0,0,0,0,4.3849,4.3841,4.3783,4.3785,4.3802,4.3883,4.3883,4.3926,4.3933,4.3962,0,4.3991,0,4.3996,4.4004,4.4004,0,0,0,4.3795,4.3835,4.3851,4.3785,4.3803,4.3883,4.3844,4.393,4.3938,4.3971,4.3993,4.3997,4.3997,4.4005,4.4005,4.4195,4.4196,0,0,4.3791,4.3801,4.3845,4.3857,4.3848,4.3842,4.3847,4.3935,4.3958,4.3993,4.3999,4.3999,4.4005,4.4006,4.4194,4.4195,0,0,0,4.3782,4.3798,4.3811,4.3852,4.3867,4.3844,4.385,4.3954,4.3957,4.4,4.4001,4.4006,4.4008,4.4193,4.4194,4.4262,0,0,0,4.3779,4.3793,4.3809,4.3816,4.3865,4.3912,4.3868,4.3951,4.3961,4.4,4.4006,4.4009,4.4191,4.4194,4.4258,4.4292,0,0,0,4.3775,4.3792,4.3807,4.3816,4.3852,4.391,4.3919,4.3953,4.3962,4.4004,4.4009,4.419,4.4193,4.4254,4.4285,4.4344,0,0,0,4.3772,4.3866,4.3808,4.3912,4.3852,4.3953,4.3918,4.3992,4.4037,4.4007,4.4192,4.4194,4.4252,4.4281,4.434,4.4395,4.442,0,0,4.3895,4.3881,4.3941,4.3892,4.4006,4.394,4.4063,4.4093,4.4087,4.4159,4.4163,4.4259,4.4285,4.4343,4.4555,4.4574,0,0,0,4.3983,4.4026,4.4055,4.4099,4.4126,4.4151,4.4162,4.4173,4.4234,4.4127,4.4297,4.4312,4.4346,4.4371,4.4388,4.4415,4.4207,4.4207,4.4206,4.417,4.4159,4.4257,4.4256,4.4299,4.431,4.4342,4.4359,4.4334,4.4374,4.4395,4.4524,4.4555,4.4567,4.4596,4.4424,4.4424,4.4424,4.4425,4.4348,4.4407,4.4372,4.4455,4.4442,4.451,4.4523,4.4503,4.4563,4.4508,4.4537,4.4477,4.4589,4.4614,4.443,4.4429,4.4428,4.4428,4.4427,4.4468,4.4494,4.4508,4.457,4.4619,4.4613,4.4672,4.4658,4.4644,4.4673,4.4692,4.4691,4.4687,4.4684,4.4684,4.4684,4.4685,4.4685,4.4685,4.4587,4.46,4.4653,4.469,4.4716,4.4748,4.4759,4.4783,4.4806,4.479,4.479,4.476,4.4603,4.4563,4.4692,4.4691,4.469,4.469,4.4689,4.4769,4.4726,4.4808,4.4835,4.4875,4.4923,4.4904,4.4955,4.4972,4.5002,4.4966,4.4853,4.4836,4.4823,4.479,4.4969,4.4969,4.4969,4.4969,4.487,4.4861,4.4941,4.4983,4.5023,4.5014,4.5105,4.5114,4.5115,4.5125,4.5097,4.5052,4.504,4.503,4.5012,4.4981,4.5205,4.5205,4.5206,4.498,4.4974,4.5056,4.5059,4.5089,4.5115,4.5199,4.5247,4.524,4.5215,4.5132,4.5122,4.5049,4.5027,4.4999,4.4972,4.4914,0,0]}]]